Location: Unspecified
(0.0000°N, 0.0000°E)
Time: 08:33:02
(UTC+00:00)

FO-29 - Visible Passes

Search period start: 21 June 2018 00:00
Search period end: 01 July 2018 00:00
Orbit: 799 x 1322 km, 98.5° (Epoch: 20 June)

Date Brightness Start Highest point End Pass type
(mag) Time Alt. Az. Time Alt. Az. Time Alt. Az.
21 Jun 12.8 05:19:34 10° ESE 05:22:46 14° E 05:25:49 10° NE visible
21 Jun 9.6 18:32:07 10° NNE 18:38:00 79° ESE 18:44:44 10° S visible
22 Jun 11.4 19:22:50 10° NNW 19:28:01 32° W 19:33:48 10° SW visible
23 Jun 12.9 05:15:31 10° E 05:17:47 12° E 05:19:58 10° ENE visible
23 Jun 9.6 18:27:02 10° NNE 18:33:01 73° ESE 18:39:52 10° S visible
24 Jun 11.2 19:17:35 10° NNW 19:23:00 36° W 19:29:07 10° SW visible
25 Jun 9.7 18:21:59 10° NNE 18:28:03 67° ESE 18:34:59 10° S visible
26 Jun 11.1 19:12:21 10° NNW 19:18:01 40° W 19:24:25 10° SW visible
27 Jun 9.8 18:16:57 10° NNE 18:23:06 62° ESE 18:30:05 10° S visible
27 Jun 12.7 20:06:16 10° WNW 20:08:09 11° W 20:10:05 10° W visible
28 Jun 10.9 19:07:10 10° N 19:13:02 44° WNW 19:19:43 10° SSW visible
29 Jun 12.6 20:00:18 10° NW 20:03:10 13° W 20:06:09 10° WSW visible
30 Jun 10.8 19:01:59 10° N 19:08:05 49° WNW 19:14:59 10° SSW visible
